| time (UTC) | temp F | wind direction | speed MPH | gust MPH | rain 1hr in | rain 24hr in | rain mn in | humidity % | barometer mb |
| 20260902163015 | 75 | 155 | 5.0 | 16.0 | 0.00 | 0.00 | 0.00 | 35 | 1012.3 |
| 20260902162514 | 75 | 219 | 5.0 | 23.0 | 0.00 | 0.00 | 0.00 | 35 | 1012.3 |
| 20260902162014 | 75 | 174 | 7.0 | 18.0 | 0.00 | 0.00 | 0.00 | 36 | 1012.4 |
| 20260902161513 | 75 | 187 | 7.0 | 17.0 | 0.00 | 0.00 | 0.00 | 38 | 1012.4 |
| 20260902161016 | 75 | 162 | 5.0 | 18.0 | 0.00 | 0.00 | 0.00 | 39 | 1012.3 |
| 20260902160512 | 75 | 102 | 7.0 | 17.0 | 0.00 | 0.00 | 0.00 | 38 | 1012.4 |
| 20260902160011 | 75 | 108 | 6.0 | 14.0 | 0.00 | 0.00 | 0.00 | 39 | 1012.4 |
| 20260902155510 | 74 | 158 | 7.0 | 16.0 | 0.00 | 0.00 | 0.00 | 40 | 1012.4 |
| 20260902155010 | 74 | 97 | 6.0 | 19.0 | 0.00 | 0.00 | 0.00 | 40 | 1012.5 |
| 20260902154508 | 74 | 124 | 10.0 | 20.0 | 0.00 | 0.00 | 0.00 | 40 | 1012.4 |
| 20260902154008 | 73 | 143 | 6.0 | 20.0 | 0.00 | 0.00 | 0.00 | 41 | 1012.4 |
| 20260902153506 | 73 | 169 | 4.0 | 15.0 | 0.00 | 0.00 | 0.00 | 42 | 1012.5 |
| 20260902153009 | 72 | 148 | 8.0 | 15.0 | 0.00 | 0.00 | 0.00 | 42 | 1012.5 |
| 20260902152504 | 72 | 157 | 3.0 | 13.0 | 0.00 | 0.00 | 0.00 | 43 | 1012.6 |
| 20260902152003 | 72 | 169 | 6.0 | 19.0 | 0.00 | 0.00 | 0.00 | 43 | 1012.6 |
| 20260902151502 | 72 | 101 | 8.0 | 19.0 | 0.00 | 0.00 | 0.00 | 44 | 1012.6 |
| 20260902151002 | 72 | 150 | 6.0 | 16.0 | 0.00 | 0.00 | 0.00 | 44 | 1012.6 |
| 20260902150501 | 71 | 169 | 7.0 | 16.0 | 0.00 | 0.00 | 0.00 | 44 | 1012.6 |
| 20260902150001 | 72 | 147 | 5.0 | 12.0 | 0.00 | 0.00 | 0.00 | 44 | 1012.6 |
| 20260902145501 | 72 | 143 | 5.0 | 13.0 | 0.00 | 0.00 | 0.00 | 44 | 1012.5 |
| 20260902145059 | 71 | 146 | 7.0 | 13.0 | 0.00 | 0.00 | 0.00 | 45 | 1012.5 |
| 20260902144559 | 71 | 186 | 3.0 | 11.0 | 0.00 | 0.00 | 0.00 | 47 | 1012.6 |
| 20260902144058 | 71 | 231 | 4.0 | 12.0 | 0.00 | 0.00 | 0.00 | 47 | 1012.5 |
| 20260902143556 | 70 | 155 | 5.0 | 13.0 | 0.00 | 0.00 | 0.00 | 48 | 1012.3 |
| 20260902143056 | 70 | 169 | 5.0 | 13.0 | 0.00 | 0.00 | 0.00 | 48 | 1012.4 |
| 20260902142556 | 70 | 137 | 4.0 | 14.0 | 0.00 | 0.00 | 0.00 | 49 | 1012.4 |
| 20260902142056 | 70 | 148 | 8.0 | 14.0 | 0.00 | 0.00 | 0.00 | 49 | 1012.4 |
| 20260902141556 | 69 | 130 | 7.0 | 16.0 | 0.00 | 0.00 | 0.00 | 49 | 1012.4 |
| 20260902141055 | 69 | 179 | 7.0 | 18.0 | 0.00 | 0.00 | 0.00 | 50 | 1012.4 |
| 20260902140555 | 69 | 136 | 8.0 | 18.0 | 0.00 | 0.00 | 0.00 | 50 | 1012.3 |
| 20260902140054 | 69 | 144 | 6.0 | 17.0 | 0.00 | 0.00 | 0.00 | 50 | 1012.2 |
| 20260902135556 | 68 | 141 | 6.0 | 13.0 | 0.00 | 0.00 | 0.00 | 50 | 1012.3 |
| 20260902135053 | 68 | 127 | 7.0 | 16.0 | 0.00 | 0.00 | 0.00 | 51 | 1012.1 |
| 20260902134553 | 68 | 137 | 7.0 | 16.0 | 0.00 | 0.00 | 0.00 | 51 | 1012.1 |
| 20260902134052 | 67 | 162 | 7.0 | 14.0 | 0.00 | 0.00 | 0.00 | 51 | 1012.1 |
| 20260902133552 | 67 | 154 | 6.0 | 11.0 | 0.00 | 0.00 | 0.00 | 51 | 1012.1 |
| 20260902133104 | 67 | 144 | 5.0 | 11.0 | 0.00 | 0.00 | 0.00 | 51 | 1012.1 |
| 20260902132553 | 67 | 172 | 4.0 | 10.0 | 0.00 | 0.00 | 0.00 | 52 | 1012.2 |
| 20260902132051 | 67 | 153 | 5.0 | 10.0 | 0.00 | 0.00 | 0.00 | 52 | 1012.3 |
| 20260902131552 | 67 | 194 | 4.0 | 10.0 | 0.00 | 0.00 | 0.00 | 53 | 1012.4 |
| 20260902131050 | 67 | 225 | 5.0 | 11.0 | 0.00 | 0.00 | 0.00 | 53 | 1012.3 |
| 20260902130550 | 66 | 221 | 5.0 | 11.0 | 0.00 | 0.00 | 0.00 | 54 | 1012.3 |
| 20260902130049 | 66 | 165 | 5.0 | 10.0 | 0.00 | 0.00 | 0.00 | 55 | 1012.2 |
| 20260902125549 | 66 | 176 | 3.0 | 10.0 | 0.00 | 0.00 | 0.00 | 55 | 1012.2 |
| 20260902125052 | 66 | 167 | 4.0 | 8.0 | 0.00 | 0.00 | 0.00 | 54 | 1012.2 |
| 20260902124549 | 67 | 215 | 4.0 | 10.0 | 0.00 | 0.00 | 0.00 | 54 | 1012.2 |
| 20260902124047 | 67 | 158 | 5.0 | 11.0 | 0.00 | 0.00 | 0.00 | 53 | 1012.2 |
| 20260902123547 | 67 | 149 | 4.0 | 11.0 | 0.00 | 0.00 | 0.00 | 53 | 1012.2 |
| 20260902123049 | 67 | 163 | 3.0 | 10.0 | 0.00 | 0.00 | 0.00 | 53 | 1012.2 |
| 20260902122547 | 67 | 158 | 4.0 | 10.0 | 0.00 | 0.00 | 0.00 | 52 | 1012.2 |
| 20260902122046 | 67 | 139 | 5.0 | 10.0 | 0.00 | 0.00 | 0.00 | 52 | 1012.2 |
| 20260902121546 | 67 | 170 | 4.0 | 8.0 | 0.00 | 0.00 | 0.00 | 52 | 1012.2 |
| 20260902121045 | 68 | 172 | 3.0 | 8.0 | 0.00 | 0.00 | 0.00 | 52 | 1012.2 |
| 20260902120545 | 68 | 162 | 4.0 | 11.0 | 0.00 | 0.00 | 0.00 | 51 | 1012.3 |
| 20260902120047 | 68 | 159 | 5.0 | 13.0 | 0.00 | 0.00 | 0.00 | 51 | 1012.3 |
| 20260902115544 | 68 | 161 | 6.0 | 13.0 | 0.00 | 0.00 | 0.00 | 51 | 1012.2 |
| 20260902115045 | 68 | 149 | 3.0 | 9.0 | 0.00 | 0.00 | 0.00 | 51 | 1012.2 |
| 20260902114552 | 68 | 148 | 5.0 | 11.0 | 0.00 | 0.00 | 0.00 | 50 | 1012.3 |
| 20260902114045 | 67 | 173 | 4.0 | 10.0 | 0.00 | 0.00 | 0.00 | 51 | 1012.3 |
| 20260902113546 | 67 | 158 | 4.0 | 7.0 | 0.00 | 0.00 | 0.00 | 51 | 1012.3 |
| 20260902113044 | 67 | 203 | 2.0 | 5.0 | 0.00 | 0.00 | 0.00 | 51 | 1012.5 |
| 20260902112544 | 66 | 153 | 1.0 | 5.0 | 0.00 | 0.00 | 0.00 | 51 | 1012.3 |
| 20260902112046 | 66 | 223 | 1.0 | 7.0 | 0.00 | 0.00 | 0.00 | 51 | 1012.3 |
| 20260902111547 | 67 | 159 | 2.0 | 7.0 | 0.00 | 0.00 | 0.00 | 50 | 1012.3 |
| 20260902111043 | 67 | 226 | 3.0 | 6.0 | 0.00 | 0.00 | 0.00 | 50 | 1012.3 |
| 20260902110542 | 67 | 224 | 3.0 | 6.0 | 0.00 | 0.00 | 0.00 | 50 | 1012.3 |
| 20260902110057 | 67 | 224 | 3.0 | 7.0 | 0.00 | 0.00 | 0.00 | 49 | 1012.3 |
| 20260902105541 | 67 | 223 | 2.0 | 9.0 | 0.00 | 0.00 | 0.00 | 49 | 1012.3 |
| 20260902105041 | 67 | 244 | 4.0 | 9.0 | 0.00 | 0.00 | 0.00 | 49 | 1012.2 |
| 20260902104542 | 67 | 229 | 2.0 | 8.0 | 0.00 | 0.00 | 0.00 | 49 | 1012.1 |
| 20260902104042 | 67 | 208 | 3.0 | 9.0 | 0.00 | 0.00 | 0.00 | 49 | 1012.2 |
| 20260902103541 | 67 | 235 | 4.0 | 8.0 | 0.00 | 0.00 | 0.00 | 49 | 1012.3 |
| 20260902103042 | 67 | 219 | 4.0 | 8.0 | 0.00 | 0.00 | 0.00 | 50 | 1012.2 |
| 20260902102545 | 67 | 233 | 3.0 | 9.0 | 0.00 | 0.00 | 0.00 | 51 | 1012.2 |
| 20260902102042 | 67 | 203 | 4.0 | 10.0 | 0.00 | 0.00 | 0.00 | 51 | 1012.1 |
| 20260902101541 | 67 | 205 | 4.0 | 10.0 | 0.00 | 0.00 | 0.00 | 51 | 1012.2 |
| 20260902101038 | 67 | 212 | 5.0 | 10.0 | 0.00 | 0.00 | 0.00 | 52 | 1012.2 |
| 20260902100541 | 68 | 215 | 4.0 | 8.0 | 0.00 | 0.00 | 0.00 | 51 | 1012.2 |
| 20260902100037 | 68 | 173 | 3.0 | 8.0 | 0.00 | 0.00 | 0.00 | 51 | 1012.2 |
| 20260902095537 | 68 | 206 | 3.0 | 7.0 | 0.00 | 0.00 | 0.00 | 51 | 1012.3 |
| 20260902095035 | 68 | 140 | 3.0 | 8.0 | 0.00 | 0.00 | 0.00 | 51 | 1012.2 |
| 20260902094635 | 68 | 209 | 3.0 | 9.0 | 0.00 | 0.00 | 0.00 | 51 | 1012.3 |
| 20260902094035 | 68 | 152 | 3.0 | 10.0 | 0.00 | 0.00 | 0.00 | 51 | 1012.4 |
| 20260902093536 | 68 | 216 | 4.0 | 10.0 | 0.00 | 0.00 | 0.00 | 51 | 1012.4 |
| 20260902093034 | 67 | 203 | 4.0 | 9.0 | 0.00 | 0.00 | 0.00 | 51 | 1012.3 |
| 20260902092534 | 68 | 210 | 2.0 | 10.0 | 0.00 | 0.00 | 0.00 | 52 | 1012.4 |
| 20260902092036 | 68 | 150 | 4.0 | 10.0 | 0.00 | 0.00 | 0.00 | 52 | 1012.5 |
| 20260902091533 | 68 | 160 | 3.0 | 9.0 | 0.00 | 0.00 | 0.00 | 52 | 1012.5 |
| 20260902091032 | 68 | 172 | 3.0 | 12.0 | 0.00 | 0.00 | 0.00 | 52 | 1012.5 |
| 20260902090532 | 68 | 156 | 3.0 | 12.0 | 0.00 | 0.00 | 0.00 | 52 | 1012.5 |
| 20260902090032 | 68 | 221 | 5.0 | 12.0 | 0.00 | 0.00 | 0.00 | 52 | 1012.5 |
| 20260902085531 | 68 | 145 | 6.0 | 11.0 | 0.00 | 0.00 | 0.00 | 52 | 1012.5 |
| 20260902085030 | 68 | 113 | 7.0 | 12.0 | 0.00 | 0.00 | 0.00 | 53 | 1012.5 |
| 20260902084538 | 68 | 142 | 5.0 | 11.0 | 0.00 | 0.00 | 0.00 | 54 | 1012.5 |
| 20260902084031 | 68 | 146 | 5.0 | 12.0 | 0.00 | 0.00 | 0.00 | 55 | 1012.5 |
| 20260902083531 | 68 | 158 | 6.0 | 14.0 | 0.00 | 0.00 | 0.00 | 55 | 1012.5 |
| 20260902083028 | 68 | 127 | 7.0 | 14.0 | 0.00 | 0.00 | 0.00 | 55 | 1012.5 |
| 20260902082527 | 69 | 172 | 6.0 | 13.0 | 0.00 | 0.00 | 0.00 | 55 | 1012.6 |
| 20260902082027 | 69 | 178 | 7.0 | 14.0 | 0.00 | 0.00 | 0.00 | 54 | 1012.6 |
| 20260902081526 | 69 | 179 | 6.0 | 14.0 | 0.00 | 0.00 | 0.00 | 53 | 1012.7 |
| 20260902081025 | 69 | 157 | 7.0 | 17.0 | 0.00 | 0.00 | 0.00 | 53 | 1012.7 |
| 20260902080525 | 69 | 150 | 8.0 | 17.0 | 0.00 | 0.00 | 0.00 | 53 | 1012.7 |
| 20260902080024 | 69 | 195 | 6.0 | 16.0 | 0.00 | 0.00 | 0.00 | 53 | 1012.7 |
| 20260902075524 | 69 | 143 | 9.0 | 16.0 | 0.00 | 0.00 | 0.00 | 53 | 1012.6 |
| 20260902075023 | 69 | 147 | 7.0 | 15.0 | 0.00 | 0.00 | 0.00 | 53 | 1012.6 |
| 20260902074522 | 69 | 144 | 6.0 | 14.0 | 0.00 | 0.00 | 0.00 | 52 | 1012.6 |
| 20260902074022 | 69 | 120 | 8.0 | 14.0 | 0.00 | 0.00 | 0.00 | 51 | 1012.6 |
| 20260902073520 | 69 | 136 | 6.0 | 11.0 | 0.00 | 0.00 | 0.00 | 51 | 1012.6 |
| 20260902073020 | 69 | 179 | 5.0 | 11.0 | 0.00 | 0.00 | 0.00 | 50 | 1012.5 |
| 20260902072520 | 69 | 148 | 5.0 | 12.0 | 0.00 | 0.00 | 0.00 | 49 | 1012.5 |
| 20260902072019 | 69 | 139 | 5.0 | 11.0 | 0.00 | 0.00 | 0.00 | 49 | 1012.5 |
| 20260902071529 | 69 | 183 | 4.0 | 9.0 | 0.00 | 0.00 | 0.00 | 48 | 1012.5 |
| 20260902071021 | 69 | 144 | 4.0 | 9.0 | 0.00 | 0.00 | 0.00 | 48 | 1012.5 |
| 20260902070517 | 69 | 195 | 2.0 | 9.0 | 0.00 | 0.00 | 0.00 | 49 | 1012.5 |
| 20260902070016 | 69 | 153 | 1.0 | 11.0 | 0.00 | 0.00 | 0.00 | 49 | 1012.5 |
| 20260902065516 | 69 | 223 | 4.0 | 11.0 | 0.00 | 0.00 | 0.00 | 50 | 1012.6 |
| 20260902065016 | 69 | 167 | 4.0 | 8.0 | 0.00 | 0.00 | 0.00 | 50 | 1012.6 |
| 20260902064523 | 69 | 175 | 3.0 | 8.0 | 0.00 | 0.00 | 0.00 | 51 | 1012.6 |
| 20260902064013 | 69 | 159 | 4.0 | 8.0 | 0.00 | 0.00 | 0.00 | 51 | 1012.6 |
| 20260902063513 | 69 | 118 | 4.0 | 8.0 | 0.00 | 0.00 | 0.00 | 52 | 1012.6 |
| 20260902063025 | 69 | 137 | 4.0 | 8.0 | 0.00 | 0.00 | 0.00 | 52 | 1012.5 |
| 20260902062513 | 69 | 155 | 4.0 | 9.0 | 0.00 | 0.00 | 0.00 | 53 | 1012.5 |
| 20260902062011 | 69 | 156 | 5.0 | 10.0 | 0.00 | 0.00 | 0.00 | 53 | 1012.4 |
| 20260902061512 | 69 | 143 | 6.0 | 11.0 | 0.00 | 0.00 | 0.00 | 53 | 1012.4 |
| 20260902061011 | 69 | 141 | 4.0 | 9.0 | 0.00 | 0.00 | 0.00 | 53 | 1012.4 |
| 20260902060508 | 70 | 161 | 5.0 | 11.0 | 0.00 | 0.00 | 0.00 | 53 | 1012.4 |
| 20260902060007 | 70 | 157 | 4.0 | 8.0 | 0.00 | 0.00 | 0.00 | 53 | 1012.4 |
| 20260902055508 | 70 | 147 | 3.0 | 7.0 | 0.00 | 0.00 | 0.00 | 52 | 1012.4 |
| 20260902055007 | 70 | 155 | 3.0 | 12.0 | 0.00 | 0.00 | 0.00 | 52 | 1012.5 |
| 20260902054513 | 70 | 147 | 4.0 | 12.0 | 0.00 | 0.00 | 0.00 | 52 | 1012.5 |
| 20260902054006 | 70 | 143 | 4.0 | 12.0 | 0.00 | 0.00 | 0.00 | 52 | 1012.6 |
| 20260902053507 | 70 | 167 | 5.0 | 12.0 | 0.00 | 0.00 | 0.00 | 52 | 1012.6 |
| 20260902053016 | 70 | 140 | 4.0 | 8.0 | 0.00 | 0.00 | 0.00 | 53 | 1012.6 |
| 20260902052508 | 70 | 169 | 2.0 | 7.0 | 0.00 | 0.00 | 0.00 | 52 | 1012.6 |
| 20260902052006 | 70 | 155 | 2.0 | 6.0 | 0.00 | 0.00 | 0.00 | 50 | 1012.8 |
| 20260902051506 | 70 | 172 | 1.0 | 7.0 | 0.00 | 0.00 | 0.00 | 50 | 1012.7 |
| 20260902051006 | 71 | 193 | 1.0 | 7.0 | 0.00 | 0.00 | 0.00 | 50 | 1012.8 |
| 20260902050506 | 71 | 161 | 3.0 | 8.0 | 0.00 | 0.00 | 0.00 | 49 | 1012.7 |
| 20260902050008 | 71 | 162 | 4.0 | 9.0 | 0.00 | 0.00 | 0.00 | 49 | 1012.7 |
| 20260902045505 | 71 | 144 | 4.0 | 9.0 | 0.00 | 0.00 | 0.00 | 50 | 1012.7 |
| 20260902045008 | 71 | 146 | 3.0 | 9.0 | 0.00 | 0.00 | 0.00 | 51 | 1012.8 |
| 20260902044505 | 72 | 194 | 2.0 | 9.0 | 0.00 | 0.00 | 0.00 | 51 | 1012.8 |
| 20260902044006 | 72 | 155 | 3.0 | 11.0 | 0.00 | 0.00 | 0.00 | 51 | 1012.7 |
| 20260902043504 | 72 | 160 | 5.0 | 11.0 | 0.00 | 0.00 | 0.00 | 51 | 1012.7 |
| 20260902043004 | 71 | 160 | 3.0 | 10.0 | 0.00 | 0.00 | 0.00 | 51 | 1012.7 |
| 20260902042505 | 71 | 157 | 2.0 | 10.0 | 0.00 | 0.00 | 0.00 | 51 | 1012.8 |
| 20260902042004 | 72 | 167 | 4.0 | 9.0 | 0.00 | 0.00 | 0.00 | 50 | 1012.7 |
| 20260902041505 | 72 | 213 | 4.0 | 9.0 | 0.00 | 0.00 | 0.00 | 50 | 1012.7 |
| 20260902041003 | 72 | 176 | 5.0 | 11.0 | 0.00 | 0.00 | 0.00 | 50 | 1012.7 |
| 20260902040504 | 71 | 153 | 2.0 | 8.0 | 0.00 | 0.00 | 0.00 | 50 | 1012.7 |
| 20260902040003 | 72 | 172 | 3.0 | 8.0 | 0.00 | 0.00 | 0.00 | 50 | 1012.7 |
| 20260902035502 | 72 | 153 | 2.0 | 6.0 | 0.00 | 0.00 | 0.00 | 50 | 1012.6 |
| 20260902035004 | 72 | 158 | 2.0 | 10.0 | 0.00 | 0.00 | 0.00 | 51 | 1012.5 |
| 20260902034503 | 72 | 165 | 4.0 | 11.0 | 0.00 | 0.00 | 0.00 | 51 | 1012.6 |
| 20260902034002 | 72 | 165 | 3.0 | 11.0 | 0.00 | 0.00 | 0.00 | 51 | 1012.5 |
| 20260902033502 | 72 | 177 | 4.0 | 9.0 | 0.00 | 0.00 | 0.00 | 51 | 1012.5 |
| 20260902033002 | 72 | 143 | 4.0 | 9.0 | 0.00 | 0.00 | 0.00 | 51 | 1012.6 |
| 20260902032505 | 72 | 162 | 3.0 | 7.0 | 0.00 | 0.00 | 0.00 | 51 | 1012.4 |
| 20260902032002 | 72 | 155 | 2.0 | 8.0 | 0.00 | 0.00 | 0.00 | 50 | 1012.4 |
| 20260902031503 | 73 | 169 | 4.0 | 8.0 | 0.00 | 0.00 | 0.00 | 49 | 1012.3 |
| 20260902031003 | 73 | 140 | 3.0 | 8.0 | 0.00 | 0.00 | 0.00 | 49 | 1012.3 |
| 20260902030500 | 73 | 152 | 4.0 | 11.0 | 0.00 | 0.00 | 0.00 | 48 | 1012.2 |
| 20260902030002 | 73 | 161 | 4.0 | 9.0 | 0.00 | 0.01 | 0.00 | 48 | 1012.1 |
| 20260902025501 | 74 | 146 | 3.0 | 12.0 | 0.00 | 0.01 | 0.00 | 48 | 1012.0 |
| 20260902025002 | 74 | 174 | 5.0 | 12.0 | 0.00 | 0.01 | 0.00 | 47 | 1012.1 |
| 20260902024601 | 74 | 165 | 4.0 | 12.0 | 0.00 | 0.01 | 0.00 | 47 | 1011.9 |
| 20260902024100 | 74 | 144 | 6.0 | 13.0 | 0.00 | 0.01 | 0.00 | 48 | 1011.9 |
| 20260902023559 | 74 | 162 | 5.0 | 13.0 | 0.00 | 0.01 | 0.00 | 48 | 1011.9 |
| 20260902023103 | 74 | 174 | 3.0 | 8.0 | 0.00 | 0.01 | 0.00 | 48 | 1012.0 |
| 20260902022600 | 74 | 208 | 3.0 | 9.0 | 0.00 | 0.01 | 0.00 | 47 | 1012.0 |
| 20260902022101 | 74 | 195 | 4.0 | 12.0 | 0.00 | 0.01 | 0.00 | 46 | 1011.9 |
| 20260902021608 | 74 | 155 | 3.0 | 12.0 | 0.00 | 0.01 | 0.00 | 45 | 1012.0 |
| 20260902021058 | 75 | 153 | 4.0 | 10.0 | 0.00 | 0.01 | 0.00 | 44 | 1011.9 |
| 20260902020557 | 75 | 148 | 5.0 | 11.0 | 0.00 | 0.01 | 0.00 | 43 | 1012.0 |
| 20260902020058 | 75 | 146 | 5.0 | 12.0 | 0.00 | 0.01 | 0.00 | 42 | 1012.0 |
| 20260902015559 | 75 | 143 | 5.0 | 10.0 | 0.00 | 0.01 | 0.00 | 41 | 1012.1 |
| 20260902015056 | 76 | 152 | 4.0 | 13.0 | 0.00 | 0.01 | 0.00 | 41 | 1012.1 |
| 20260902014559 | 76 | 172 | 5.0 | 13.0 | 0.00 | 0.01 | 0.00 | 40 | 1012.0 |
| 20260902014055 | 77 | 158 | 6.0 | 14.0 | 0.00 | 0.01 | 0.00 | 40 | 1012.1 |
| 20260902013555 | 77 | 154 | 8.0 | 14.0 | 0.00 | 0.01 | 0.00 | 39 | 1012.0 |
| 20260902013055 | 77 | 148 | 8.0 | 14.0 | 0.00 | 0.01 | 0.00 | 39 | 1012.1 |
| 20260902012555 | 78 | 160 | 5.0 | 13.0 | 0.00 | 0.01 | 0.00 | 39 | 1012.1 |
| 20260902012054 | 78 | 141 | 6.0 | 15.0 | 0.00 | 0.01 | 0.00 | 38 | 1012.1 |
| 20260902011554 | 78 | 147 | 7.0 | 18.0 | 0.00 | 0.01 | 0.00 | 38 | 1012.2 |
| 20260902011053 | 78 | 139 | 10.0 | 18.0 | 0.00 | 0.01 | 0.00 | 38 | 1012.2 |
| 20260902010553 | 78 | 138 | 6.0 | 16.0 | 0.00 | 0.01 | 0.00 | 37 | 1012.2 |
| 20260902010052 | 79 | 131 | 10.0 | 19.0 | 0.00 | 0.01 | 0.00 | 38 | 1012.3 |
| 20260902005551 | 79 | 126 | 7.0 | 16.0 | 0.00 | 0.03 | 0.00 | 38 | 1012.4 |
| 20260902005055 | 79 | 133 | 7.0 | 18.0 | 0.00 | 0.03 | 0.00 | 38 | 1012.4 |
| 20260902004551 | 79 | 124 | 7.0 | 21.0 | 0.00 | 0.03 | 0.00 | 38 | 1012.5 |
| 20260902004050 | 80 | 133 | 11.0 | 23.0 | 0.00 | 0.03 | 0.00 | 37 | 1012.5 |
| 20260902003550 | 80 | 139 | 12.0 | 23.0 | 0.00 | 0.03 | 0.00 | 36 | 1012.6 |
| 20260902003050 | 80 | 179 | 10.0 | 22.0 | 0.00 | 0.03 | 0.00 | 36 | 1012.7 |
| 20260902002550 | 80 | 150 | 10.0 | 22.0 | 0.00 | 0.03 | 0.00 | 36 | 1012.6 |
| 20260902002050 | 80 | 137 | 7.0 | 17.0 | 0.00 | 0.03 | 0.00 | 36 | 1012.7 |
| 20260902001549 | 80 | 166 | 8.0 | 18.0 | 0.00 | 0.03 | 0.00 | 36 | 1012.8 |
| 20260902001052 | 80 | 153 | 9.0 | 18.0 | 0.00 | 0.03 | 0.00 | 36 | 1012.8 |
| 20260902000548 | 80 | 146 | 8.0 | 14.0 | 0.00 | 0.03 | 0.00 | 36 | 1012.9 |
| 20260902000052 | 80 | 132 | 9.0 | 16.0 | 0.00 | 0.03 | 0.00 | 37 | 1012.9 |
| 20260901235549 | 79 | 116 | 7.0 | 17.0 | 0.00 | 0.16 | 0.00 | 36 | 1012.9 |
| 20260901235046 | 80 | 156 | 11.0 | 18.0 | 0.00 | 0.16 | 0.00 | 36 | 1012.9 |
| 20260901234557 | 80 | 152 | 10.0 | 18.0 | 0.00 | 0.16 | 0.00 | 36 | 1013.1 |
| 20260901234046 | 80 | 176 | 8.0 | 19.0 | 0.00 | 0.16 | 0.00 | 36 | 1013.0 |
| 20260901233547 | 81 | 141 | 8.0 | 16.0 | 0.00 | 0.16 | 0.00 | 35 | 1012.9 |
| 20260901233046 | 81 | 158 | 6.0 | 18.0 | 0.00 | 0.16 | 0.00 | 36 | 1012.9 |
| 20260901232547 | 80 | 156 | 7.0 | 19.0 | 0.00 | 0.16 | 0.00 | 36 | 1013.0 |
| 20260901232045 | 80 | 131 | 9.0 | 19.0 | 0.00 | 0.16 | 0.00 | 35 | 1013.0 |
| 20260901231543 | 81 | 150 | 4.0 | 15.0 | 0.00 | 0.16 | 0.00 | 36 | 1013.1 |
| 20260901231041 | 81 | 123 | 7.0 | 15.0 | 0.00 | 0.16 | 0.00 | 36 | 1013.2 |
| 20260901230541 | 81 | 125 | 6.0 | 12.0 | 0.00 | 0.16 | 0.00 | 37 | 1013.3 |
| 20260901230045 | 80 | 164 | 7.0 | 13.0 | 0.00 | 0.16 | 0.00 | 36 | 1013.3 |
| 20260901225540 | 80 | 110 | 7.0 | 14.0 | 0.00 | 0.17 | 0.00 | 36 | 1013.3 |
| 20260901225039 | 80 | 140 | 5.0 | 17.0 | 0.00 | 0.17 | 0.00 | 37 | 1013.3 |
| 20260901224539 | 80 | 105 | 10.0 | 17.0 | 0.00 | 0.17 | 0.00 | 37 | 1013.4 |
| 20260901224040 | 80 | 120 | 9.0 | 15.0 | 0.00 | 0.17 | 0.00 | 36 | 1013.6 |
| 20260901223537 | 80 | 153 | 6.0 | 17.0 | 0.00 | 0.17 | 0.00 | 38 | 1013.7 |
| 20260901223036 | 79 | 143 | 8.0 | 17.0 | 0.00 | 0.17 | 0.00 | 38 | 1013.7 |
| 20260901222537 | 79 | 153 | 7.0 | 17.0 | 0.00 | 0.17 | 0.00 | 39 | 1013.8 |
| 20260901222035 | 79 | 103 | 9.0 | 13.0 | 0.00 | 0.17 | 0.00 | 38 | 1013.8 |
| 20260901221553 | 79 | 106 | 5.0 | 14.0 | 0.00 | 0.17 | 0.00 | 38 | 1013.9 |
| 20260901221034 | 78 | 139 | 9.0 | 17.0 | 0.00 | 0.17 | 0.00 | 38 | 1014.1 |
| 20260901220532 | 78 | 115 | 8.0 | 17.0 | 0.00 | 0.17 | 0.00 | 39 | 1014.2 |
| 20260901220032 | 78 | 127 | 6.0 | 15.0 | 0.00 | 0.17 | 0.00 | 39 | 1014.3 |
| 20260901215531 | 77 | 118 | 9.0 | 14.0 | 0.00 | 0.17 | 0.00 | 37 | 1014.3 |
| 20260901215031 | 78 | 124 | 6.0 | 17.0 | 0.00 | 0.17 | 0.00 | 37 | 1014.6 |
| 20260901214530 | 78 | 169 | 10.0 | 17.0 | 0.00 | 0.17 | 0.00 | 37 | 1014.6 |
| 20260901214029 | 78 | 165 | 9.0 | 15.0 | 0.00 | 0.17 | 0.00 | 38 | 1014.7 |
| 20260901213529 | 78 | 134 | 9.0 | 22.0 | 0.00 | 0.17 | 0.00 | 39 | 1014.8 |
| 20260901213054 | 79 | 153 | 11.0 | 22.0 | 0.00 | 0.17 | 0.00 | 37 | 1014.9 |
| 20260901212528 | 80 | 174 | 10.0 | 19.0 | 0.00 | 0.17 | 0.00 | 37 | 1014.8 |
| 20260901212028 | 80 | 199 | 6.0 | 13.0 | 0.00 | 0.17 | 0.00 | 38 | 1014.8 |
| 20260901211538 | 79 | 134 | 3.0 | 13.0 | 0.00 | 0.17 | 0.00 | 41 | 1015.0 |
| 20260901211025 | 78 | 147 | 4.0 | 12.0 | 0.00 | 0.17 | 0.00 | 41 | 1014.9 |
| 20260901210524 | 77 | 160 | 6.0 | 12.0 | 0.00 | 0.17 | 0.00 | 41 | 1015.2 |
| 20260901210027 | 77 | 125 | 5.0 | 13.0 | 0.00 | 0.17 | 0.00 | 41 | 1015.1 |
| 20260901205522 | 77 | 130 | 5.0 | 11.0 | 0.00 | 0.17 | 0.00 | 42 | 1015.3 |
| 20260901205022 | 77 | 165 | 6.0 | 16.0 | 0.00 | 0.17 | 0.00 | 42 | 1015.4 |
| 20260901204521 | 77 | 207 | 5.0 | 16.0 | 0.00 | 0.17 | 0.00 | 42 | 1015.4 |
| 20260901204020 | 77 | 117 | 7.0 | 17.0 | 0.00 | 0.17 | 0.00 | 42 | 1015.3 |
| 20260901203522 | 78 | 113 | 6.0 | 13.0 | 0.00 | 0.17 | 0.00 | 41 | 1015.5 |
| 20260901203031 | 78 | 121 | 6.0 | 17.0 | 0.00 | 0.17 | 0.00 | 41 | 1015.5 |
| 20260901202517 | 78 | 141 | 6.0 | 15.0 | 0.00 | 0.17 | 0.00 | 42 | 1015.7 |
| 20260901202017 | 78 | 163 | 8.0 | 21.0 | 0.00 | 0.17 | 0.00 | 43 | 1015.8 |
| 20260901201515 | 78 | 171 | 8.0 | 21.0 | 0.00 | 0.17 | 0.00 | 43 | 1015.8 |
| 20260901201015 | 77 | 174 | 8.0 | 16.0 | 0.00 | 0.17 | 0.00 | 43 | 1015.9 |
| 20260901200515 | 77 | 141 | 7.0 | 16.0 | 0.00 | 0.17 | 0.00 | 42 | 1015.9 |
| 20260901200025 | 77 | 214 | 8.0 | 15.0 | 0.00 | 0.17 | 0.00 | 42 | 1016.1 |
| 20260901195511 | 77 | 136 | 4.0 | 13.0 | 0.00 | 0.17 | 0.00 | 44 | 1016.3 |
| 20260901195010 | 77 | 139 | 6.0 | 13.0 | 0.00 | 0.17 | 0.00 | 44 | 1016.5 |
| 20260901194510 | 77 | 124 | 5.0 | 14.0 | 0.00 | 0.17 | 0.00 | 44 | 1016.4 |
| 20260901194010 | 76 | 180 | 7.0 | 14.0 | 0.00 | 0.17 | 0.00 | 43 | 1016.5 |
| 20260901193508 | 76 | 243 | 7.0 | 16.0 | 0.00 | 0.17 | 0.00 | 45 | 1016.6 |
| 20260901193007 | 76 | 103 | 4.0 | 17.0 | 0.00 | 0.17 | 0.00 | 46 | 1016.7 |
| 20260901192507 | 75 | 121 | 8.0 | 17.0 | 0.00 | 0.17 | 0.00 | 45 | 1016.8 |
| 20260901192004 | 74 | 143 | 6.0 | 15.0 | 0.00 | 0.17 | 0.00 | 47 | 1016.9 |
| 20260901191503 | 74 | 134 | 7.0 | 15.0 | 0.00 | 0.17 | 0.00 | 46 | 1017.0 |
| 20260901191003 | 74 | 185 | 6.0 | 15.0 | 0.00 | 0.17 | 0.00 | 47 | 1017.0 |
| 20260901190501 | 74 | 166 | 7.0 | 17.0 | 0.00 | 0.17 | 0.00 | 47 | 1017.0 |
| 20260901190003 | 73 | 134 | 9.0 | 18.0 | 0.00 | 0.17 | 0.00 | 46 | 1017.0 |
| 20260901185600 | 73 | 155 | 9.0 | 18.0 | 0.00 | 0.17 | 0.00 | 47 | 1017.1 |
| 20260901185059 | 73 | 160 | 7.0 | 18.0 | 0.00 | 0.17 | 0.00 | 47 | 1017.1 |
| 20260901184559 | 73 | 139 | 9.0 | 16.0 | 0.00 | 0.17 | 0.00 | 46 | 1017.3 |
| 20260901184059 | 73 | 170 | 10.0 | 16.0 | 0.00 | 0.17 | 0.00 | 47 | 1017.3 |
| 20260901183601 | 73 | 153 | 10.0 | 18.0 | 0.00 | 0.17 | 0.00 | 47 | 1017.3 |
| 20260901183058 | 73 | 163 | 8.0 | 18.0 | 0.00 | 0.17 | 0.00 | 48 | 1017.3 |
| 20260901182558 | 73 | 153 | 9.0 | 17.0 | 0.00 | 0.17 | 0.00 | 48 | 1017.3 |
| 20260901182057 | 73 | 123 | 8.0 | 17.0 | 0.00 | 0.17 | 0.00 | 48 | 1017.4 |
| 20260901181556 | 72 | 131 | 8.0 | 18.0 | 0.00 | 0.17 | 0.00 | 50 | 1017.5 |
| 20260901181056 | 72 | 145 | 6.0 | 18.0 | 0.00 | 0.17 | 0.00 | 49 | 1017.5 |
| 20260901180556 | 72 | 141 | 7.0 | 16.0 | 0.00 | 0.17 | 0.00 | 49 | 1017.5 |
| 20260901180056 | 72 | 129 | 9.0 | 15.0 | 0.00 | 0.17 | 0.00 | 49 | 1017.6 |
| 20260901175554 | 72 | 103 | 7.0 | 16.0 | 0.00 | 0.17 | 0.00 | 51 | 1017.6 |
| 20260901175054 | 72 | 146 | 4.0 | 16.0 | 0.00 | 0.17 | 0.00 | 52 | 1017.6 |
| 20260901174553 | 72 | 164 | 8.0 | 18.0 | 0.00 | 0.17 | 0.00 | 52 | 1017.5 |
| 20260901174052 | 71 | 142 | 8.0 | 18.0 | 0.00 | 0.17 | 0.00 | 53 | 1017.5 |
| 20260901173552 | 71 | 140 | 9.0 | 19.0 | 0.00 | 0.17 | 0.00 | 53 | 1017.5 |
| 20260901173052 | 71 | 155 | 12.0 | 17.0 | 0.00 | 0.17 | 0.00 | 51 | 1017.5 |
| 20260901172550 | 71 | 135 | 6.0 | 17.0 | 0.00 | 0.17 | 0.00 | 53 | 1017.5 |
| 20260901172049 | 71 | 126 | 8.0 | 18.0 | 0.00 | 0.17 | 0.00 | 52 | 1017.5 |
| 20260901171552 | 70 | 117 | 8.0 | 18.0 | 0.00 | 0.17 | 0.00 | 54 | 1017.6 |
| 20260901171050 | 70 | 147 | 9.0 | 18.0 | 0.00 | 0.17 | 0.00 | 54 | 1017.6 |
| 20260901170547 | 70 | 150 | 7.0 | 18.0 | 0.00 | 0.17 | 0.00 | 55 | 1017.5 |
| 20260901170049 | 69 | 187 | 8.0 | 20.0 | 0.00 | 0.17 | 0.00 | 56 | 1017.6 |
| 20260901165548 | 69 | 155 | 10.0 | 22.0 | 0.00 | 0.17 | 0.00 | 55 | 1017.6 |
| 20260901165048 | 69 | 145 | 9.0 | 22.0 | 0.00 | 0.17 | 0.00 | 55 | 1017.6 |
| 20260901164545 | 69 | 117 | 10.0 | 19.0 | 0.00 | 0.17 | 0.00 | 56 | 1017.5 |
| 20260901164043 | 69 | 158 | 8.0 | 16.0 | 0.00 | 0.17 | 0.00 | 58 | 1017.4 |
| 20260901163543 | 69 | 172 | 7.0 | 16.0 | 0.00 | 0.17 | 0.00 | 59 | 1017.5 |